Vorticity
nan nan nan nan nan nan nan nan nan nan nan nan nan nan nan nan nan nan nan nan nan nan nan nan nan nan nan nan nan nan nan nan nan nan nan nan nan nan nan nan nan nan nan
nan 6 7 6 6 6 6 5 6 6 7 6 6 6 6 5 5 5 5 4 5 5 6 6 4 4 3 4 4 5 5 5 4 5 5 7 9 6 5 7 10 9 nan
nan 6 6 6 7 7 7 7 7 6 6 6 6 6 6 6 6 5 5 5 5 4 5 5 6 7 5 4 4 5 5 5 5 6 8 8 8 9 7 5 7 7 nan
nan 7 6 7 6 6 7 7 7 7 5 5 6 6 6 6 6 6 5 5 5 5 5 4 5 6 7 6 5 5 5 5 6 7 8 6 8 12 9 7 6 6 nan
nan 7 6 5 5 5 6 6 6 5 6 6 6 6 6 5 5 6 6 6 5 5 5 5 5 4 5 6 5 5 5 5 6 8 7 7 9 13 9 7 7 6 nan
nan 4 5 6 7 6 6 5 6 6 5 5 6 7 6 7 6 5 6 7 7 7 6 5 5 4 5 6 6 6 5 5 7 7 6 7 11 11 9 7 7 6 nan
nan 4 6 8 6 5 5 5 5 5 5 4 5 8 10 10 8 9 8 8 7 8 8 7 6 5 5 5 5 5 6 6 7 6 6 6 10 13 8 6 7 6 nan
nan 5 6 5 4 4 4 4 4 4 5 5 5 7 9 9 8 11 12 9 7 6 7 8 7 7 6 5 6 6 6 6 7 7 6 7 9 13 8 5 5 7 nan
nan 7 6 4 4 3 2 4 5 5 5 5 5 6 7 7 8 8 9 8 10 11 12 11 10 9 8 8 7 7 6 6 8 7 7 8 10 12 8 7 6 5 nan
nan 7 7 7 5 4 5 4 5 8 5 4 4 6 6 6 5 5 6 6 9 11 13 12 14 16 15 11 10 9 8 9 8 7 8 6 9 10 8 7 6 5 nan
nan 7 7 7 9 6 6 5 5 4 1 2 2 5 8 6 3 2 2 6 9 10 8 7 8 11 15 14 12 11 12 13 9 8 8 7 8 10 10 8 6 5 nan
nan 6 6 7 8 8 7 5 5 3 2 3 5 5 6 7 6 4 1 4 5 5 4 5 6 7 10 11 9 11 11 8 10 8 8 10 7 11 12 7 6 6 nan
nan 7 7 6 7 8 6 6 6 6 6 5 6 7 7 7 7 6 6 4 1 4 7 5 7 6 7 8 8 7 7 11 10 8 7 9 13 12 9 8 7 6 nan
nan 7 6 6 7 6 7 7 8 7 7 7 6 7 8 7 7 8 8 7 8 6 7 8 8 6 6 7 7 8 9 8 8 10 9 5 9 13 13 13 7 6 nan
nan 7 7 6 7 7 7 7 7 8 9 7 6 7 8 8 8 8 8 8 8 7 8 8 7 7 6 7 7 6 6 7 8 8 5 8 10 12 19 18 11 6 nan
nan 7 7 7 8 8 7 8 7 8 8 7 7 7 8 8 8 9 8 8 8 8 8 7 7 7 7 7 7 7 8 7 7 7 7 8 10 12 10 18 17 8 nan
nan 6 6 5 7 8 9 8 7 8 7 7 7 7 7 7 8 9 8 8 7 7 8 8 8 8 7 7 7 8 8 8 7 8 9 8 10 12 12 11 15 15 nan
nan 7 6 6 7 7 8 7 7 9 8 7 7 6 6 8 9 8 8 7 8 8 8 7 7 8 8 7 6 8 8 7 8 10 10 9 10 14 15 12 8 10 nan
nan 7 7 7 7 6 6 8 9 9 8 7 7 7 7 7 8 9 7 7 8 8 7 8 8 7 7 7 8 9 8 9 9 9 9 10 9 10 10 14 18 16 nan
nan 6 5 7 6 6 8 9 8 7 7 8 8 8 8 7 8 8 7 8 8 8 8 8 8 9 7 7 10 10 11 11 10 7 6 9 8 6 9 10 13 16 nan
nan 7 7 7 6 7 8 7 8 8 7 7 8 8 8 8 8 9 8 8 9 8 8 8 8 8 7 10 13 11 12 12 7 0 9 7 6 8 8 8 9 7 nan
nan 5 7 6 7 8 10 8 9 8 9 8 6 6 7 9 8 8 9 8 9 8 7 7 9 12 7 7 12 12 8 9 0 7 10 5 5 9 4 7 8 8 nan
nan 7 7 7 7 8 10 10 10 8 8 7 8 7 9 10 8 8 9 8 8 8 8 7 5 9 10 6 10 13 8 4 9 8 6 5 7 8 7 7 8 7 nan
nan 9 8 8 7 8 9 10 10 10 8 8 8 9 9 6 8 9 8 8 9 8 8 7 7 8 9 8 8 8 9 8 8 7 4 3 8 6 9 10 5 6 nan
nan 7 6 7 7 9 9 9 8 10 10 10 8 8 7 5 7 8 8 8 9 9 7 7 8 9 10 9 8 7 10 11 8 6 1 7 7 9 6 7 10 9 nan
nan nan nan nan nan nan nan nan nan nan nan nan nan nan nan nan nan nan nan nan nan nan nan nan nan nan nan nan nan nan nan nan nan nan nan nan nan nan nan nan nan nan nan
CAPE
1338 1516 1523 1711 1734 1656 1578 1552 1711 1980 2205 2289 2250 2188 2129 2101 2111 2120 2158 2162 2214 2252 1833 1538 1223 1318 1184 1049 1130 1346 1287 1051 954 998 911 979 957 800 519 374 406 612 660
1396 1561 1627 1823 1927 1883 1840 1805 1838 1957 2142 2255 2245 2225 2193 2174 2140 2129 2146 2225 2333 2097 1948 1841 1673 1506 1485 1451 1142 1045 1195 1148 1094 1112 979 905 974 873 457 666 704 728 773
1179 1339 1556 1610 1853 1932 2019 2067 2082 2049 1938 1914 2066 2036 2043 2077 2133 2156 2084 1995 1997 1909 1859 1918 1951 1831 1796 1655 1179 943 936 1010 997 984 1017 481 571 840 583 663 984 754 754
813 848 1080 1082 1268 1286 1262 1154 1164 1144 1316 1479 1634 1768 1957 2096 2084 2074 1973 1792 1912 1870 1874 1830 1895 1920 1907 1618 1254 948 880 900 858 906 527 415 461 815 688 588 808 736 705
279 282 275 282 378 384 430 413 279 265 262 298 385 579 788 1058 1604 1887 1872 1741 1811 1743 1874 1929 1975 1925 1448 1392 1308 995 818 776 774 716 465 483 523 981 821 726 887 824 925
9 2 3 90 115 33 13 7 1 0 0 0 0 0 17 289 712 1170 1344 1466 1638 1761 1660 1709 1888 1737 1265 1142 1221 1001 722 635 625 534 453 566 733 992 870 885 1067 1020 834
0 0 0 0 0 0 0 0 0 0 0 0 0 0 0 0 7 304 597 987 1336 1549 1744 1743 1595 1481 1268 1098 1028 1079 841 620 529 502 524 668 708 1339 1064 784 1060 1025 906
0 0 0 0 0 0 0 0 0 0 0 0 0 0 0 0 0 0 324 836 872 924 1137 1355 1366 1298 1189 1108 1051 913 864 735 639 459 412 540 804 1577 1275 1043 1073 1039 1016
0 0 0 0 0 0 0 0 0 0 0 0 0 0 0 0 0 0 0 6 0 0 162 526 658 783 1011 1065 988 880 763 684 615 404 441 508 939 1701 1462 1233 904 874 977
0 0 0 0 0 0 0 0 0 0 0 0 0 0 0 0 0 0 0 0 0 0 0 0 0 262 515 581 786 858 788 686 504 452 409 350 964 1630 1575 1363 1012 790 886
0 0 0 0 0 0 0 0 0 0 0 0 0 0 0 0 0 0 0 0 0 0 0 0 0 0 1 235 546 650 601 513 472 478 408 435 847 1459 1680 1520 1377 1176 942
0 0 0 0 0 0 0 0 0 0 0 0 0 0 0 0 0 0 0 0 0 0 0 0 0 0 0 0 0 10 41 449 551 572 675 659 991 1500 2029 1521 1445 1264 991
0 0 0 0 0 0 0 0 0 0 0 0 0 0 0 0 0 0 0 0 0 0 0 0 0 0 0 0 0 0 0 0 112 723 881 925 835 1579 1953 1702 1355 1190 1049
0 0 0 0 0 0 0 0 0 0 0 0 0 0 0 0 0 0 0 0 0 0 0 0 0 0 0 0 0 0 0 0 0 190 570 566 504 1174 1783 1930 1796 1248 950
0 0 0 0 0 0 0 0 0 0 0 0 0 0 0 0 0 0 0 0 0 0 0 0 0 0 0 0 0 0 0 0 0 0 0 205 359 774 1355 1899 1997 1375 1405
0 0 0 0 0 0 0 0 0 0 0 0 0 0 0 0 0 0 0 0 0 0 0 0 0 0 0 0 0 0 0 0 0 0 0 0 138 646 795 1293 1750 1558 1556
0 0 0 0 0 0 0 0 0 0 0 0 0 0 0 0 0 0 0 0 0 0 0 0 0 0 0 0 0 0 0 0 0 0 0 0 0 203 540 494 788 1254 1614
0 0 0 0 0 0 0 0 0 0 0 0 0 0 0 0 0 0 0 0 0 0 0 0 0 0 0 0 0 0 0 0 0 0 0 0 0 0 112 441 448 608 676
0 0 0 0 0 0 0 0 0 0 0 0 0 0 0 0 0 0 0 0 0 0 0 0 0 0 0 0 0 0 0 0 0 0 0 0 0 0 0 0 237 288 357
0 0 0 0 0 0 0 0 0 0 0 0 0 0 0 0 0 0 0 0 0 0 0 0 0 0 0 0 0 0 0 0 0 0 0 0 0 0 0 0 0 0 156
0 0 0 0 0 0 0 0 0 0 0 0 0 0 0 0 0 0 0 0 0 0 0 0 0 0 0 0 0 0 0 0 0 0 0 0 0 0 0 0 0 0 0
0 0 0 0 0 0 0 0 0 0 0 0 0 0 0 0 0 0 0 0 0 0 0 0 0 0 0 0 2 0 0 0 0 0 0 0 0 0 0 0 0 0 0
0 0 0 0 0 0 0 0 0 0 0 0 0 0 0 0 0 0 0 0 0 0 0 0 0 1 3 1 4 15 6 1 1 0 0 0 0 0 0 0 0 0 0
0 0 0 0 0 0 0 0 0 0 0 0 0 0 0 0 0 0 0 0 0 0 0 0 3 3 8 4 1 3 6 19 22 4 0 0 0 0 0 0 0 0 0
0 0 0 0 0 0 0 0 0 0 0 0 0 0 0 0 0 0 0 0 0 0 0 0 1 5 3 5 9 10 11 8 6 9 3 0 0 0 1 3 0 0 0
0 0 0 0 0 0 0 0 0 0 0 0 0 0 0 0 0 0 0 0 0 0 0 2 1 1 3 8 15 14 17 18 15 14 2 0 10 4 0 0 2 0 0